Weather Roundup
Issued by NWS

Home | Current Version | Previous Version | Graphics & Text | Print | Product List | Glossary Off
Versions: 1 2 3 4 5 6 7 8 9 10 11 12 13 14 15 16 17 18 19 20 21 22 23 24 25 26 27 28 29 30 31 32 33 34 35 36 37 38 39 40 41 42 43 44 45 46 47 48 49 50

000
NZUS93 KARX 270210
HRRWXR

CURRENT HOURLY OBSERVATIONS ACROSS
MUCH OF THE UPPER MISSISSIPPI VALLEY
NATIONAL WEATHER SERVICE LA CROSSE WI
900 PM CDT THU MAR 26 2015


...SOUTHEAST MINNESOTA...


CITY           SKY/WX    TMP DP  RH WIND       PRES   REMARKS
ROCHESTER      CLOUDY    29  19  66 NW13      30.11R WCI  19
ROCHESTER/MAYO CLOUDY    31  19  62 NW10      30.12R WCI  22
WINONA         PTCLDY    32  19  59 NW5       30.13R WCI  27
AUSTIN         CLOUDY    28  21  74 NW10      30.13R WCI  19
ALBERT LEA     CLOUDY    30  21  69 NW9       30.14R WCI  22
DODGE CENTER   MOCLDY    28  19  69 NW13      30.12R WCI  18
PRESTON        CLOUDY    29  20  67 N8        30.11R WCI  21
OWATONNA       PTCLDY    27  18  69 W8        30.14S WCI  18
FARIBAULT      PTCLDY    28  18  64 NW7       30.16R WCI  21
$$

...ELSEWHERE IN MINNESOTA...


CITY           SKY/WX    TMP DP  RH WIND       PRES   REMARKS
MINNEAPOLIS    CLEAR     30   8  39 N8        30.17R WCI  22
INTNL FALLS    CLEAR     19   2  47 N7        30.23R WCI  10
DULUTH         CLEAR     22   2  42 N8        30.16R WCI  12
RED WING       CLEAR     30   9  40 N6        30.14R WCI  24
REDWOOD FALLS  CLEAR     26  17  68 NW6       30.20R WCI  19
MANKATO        CLEAR     27  18  69 NW9       30.17R WCI  17
WORTHINGTON    CLEAR     25  16  68 N10       30.20R WCI  15
FAIRMONT       CLOUDY    30  10  43 N13       30.17R WCI  20
$$

...SOUTHWEST WISCONSIN...


CITY           SKY/WX    TMP DP  RH WIND       PRES   REMARKS
LA CROSSE      MOCLDY    32  18  56 N9        30.11R WCI  24
PRAIRIE DU CHI CLOUDY    33  20  59 NW5       30.11R WCI  28
BOSCOBEL       CLOUDY    34  19  54 N5        30.10R WCI  30
LONE ROCK      CLOUDY    33  16  49 N14       30.10R WCI  23
PLATTEVILLE    CLOUDY    32  23  68 NW6       30.07R WCI  26
FORT MC COY    MOCLDY    29  13  50 CALM      30.11R
CAMP DOUGLAS   MOCLDY    27  16  63 N7        30.10R WCI  19
VIROQUA        CLOUDY    30  18  60 N10       30.08R WCI  21
WIS DELLS      CLOUDY    29  13  51 N14G21    30.08R WCI  19
$$

...ELSEWHERE IN WISCONSIN...


CITY           SKY/WX    TMP DP  RH WIND       PRES   REMARKS
MILWAUKEE      MOCLDY    31  15  52 N15       30.05R WCI  20
MADISON        CLOUDY    31  16  54 N16       30.07R WCI  20
GREEN BAY      CLOUDY    28  17  63 N14       30.10R WCI  17
EAU CLAIRE     CLEAR     27   9  46 N7        30.13R WCI  19
BLACK RVR FLS  MOCLDY    28  13  52 N5        30.11R WCI  23
MEDFORD        CLEAR     18   8  64 N7        30.10R WCI   8
WAUSAU         CLEAR     22   7  52 N9        30.09R WCI  12
WIS RAPIDS     PTCLDY    26  10  50 N13       30.11R WCI  15
MARSHFIELD     CLEAR     24  10  55 NE9       30.09R WCI  14
RICE LAKE      CLEAR     26   7  44 N8        30.15R WCI  17
$$

...NORTHEAST IOWA...


CITY           SKY/WX    TMP DP  RH WIND       PRES   REMARKS
DECORAH        CLOUDY    30  23  74 NW6       30.10R WCI  24
MASON CITY     CLOUDY    30  19  63 NW14      30.16R WCI  19
CHARLES CITY   CLOUDY    32  23  69 NW12      30.13R WCI  23
OELWEIN        CLEAR     28  23  80 NW12      30.12R WCI  18
$$

...ELSEWHERE IN IOWA...


CITY           SKY/WX    TMP DP  RH WIND       PRES   REMARKS
DES MOINES     CLOUDY    38  23  55 N7        30.15R WCI  33
IOWA CITY      PTCLDY    33  22  63 N13       30.13R WCI  24
FORT DODGE     MOCLDY    32  19  59 N8G16     30.17R WCI  25
$$

...NORTHERN ILLINOIS...


CITY           SKY/WX    TMP DP  RH WIND       PRES   REMARKS
CHICAGO-OHARE  CLOUDY    35  21  56 NW9       30.03R WCI  28
CHICAGO-MIDWAY MOCLDY    38  19  46 NW12      30.04R WCI  30
MOLINE         CLEAR     34  21  59 N13       30.09R WCI  25
ROCKFORD       CLOUDY    34  22  61 NW8       30.07R WCI  27
PEORIA         CLEAR     39  23  52 VRB6      30.07R WCI  35
$$

NOTE: "FAIR" INDICATES FEW OR NO CLOUDS BELOW 12,000 FEET WITH NO
SIGNIFICANT WEATHER AND/OR OBSTRUCTIONS TO VISIBILITY. WIND
SPEEDS ARE IN MILES-PER-HOUR.



USA.gov is the U.S. government's official web portal to all federal, state and local government web resources and services.